[ hide orbit diagram ]
For accurate long-term ephemerides, please instead use our Horizons system.This orbit viewer was implemented using two-body methods, and hence should not be used for determining accurate long-term trajectories (over several years or decades) or planetary encounter circumstances.
Orbital Elements at Epoch 2459200.5 (2020-Dec-17.0) TDB
Reference: JPL 25 (heliocentric ecliptic J2000)
Element | Value | Uncertainty (1-sigma) | Units |
e | .2549243562046589 | 4.7953e-08 | |
a | 2.360091630695941 | 6.8368e-09 | au |
q | 1.758446791156774 | 1.1266e-07 | au |
i | 5.299228266530629 | 4.6646e-06 | deg |
node | .8248258802572571 | 3.3864e-05 | deg |
peri | 337.1280654951635 | 3.4639e-05 | deg |
M | 42.75857921125537 | 7.7094e-06 | deg |
tp | 2459043.205879551158 (2020-Jul-12.70587955) | 2.8327e-05 | TDB |
period | 1324.316298766947 3.63 | 5.7545e-06 1.575e-08 | d yr |
n | .2718383820656675 | 1.1812e-09 | deg/d |
Q | 2.961736470235107 | 8.5797e-09 | au |
|
| | Orbit Determination Parameters
Additional Information
|
[ hide covariance matrix ]
Orbital Elements at Epoch 2457408.5 (2016-Jan-21.0) TDB
Reference: JPL 25 (heliocentric ecliptic J2000)
Element | Value | Uncertainty (1-sigma) | Units |
e | .2550258250688159 | 4.7899e-08 | |
q | 1.75814622932407 | 1.1253e-07 | au |
tp | 2457719.694840512369 (2016-Nov-27.19484051) | 2.8727e-05 | TDB |
node | .8726737070663233 | 3.3855e-05 | deg |
peri | 337.2975985416038 | 3.4629e-05 | deg |
i | 5.300101320767403 | 4.6655e-06 | deg |
|
| | Orbit Determination Parameters
Additional Information
|
Orbit Covariance (6×6)
|
|
e |
q |
tp |
node |
peri |
i |
e |
2.294338375542395E-15 |
-5.384510830675864E-15 |
7.828955651565853E-13 |
8.505755589448609E-15 |
1.293500141286568E-13 |
-2.784732668035927E-15 |
q |
-5.384510830675864E-15 |
1.266264162664147E-14 |
-1.873621788218899E-12 |
-2.029319466312058E-14 |
-3.141898669530738E-13 |
6.708026308824114E-15 |
tp |
7.828955651565853E-13 |
-1.873621788218899E-12 |
8.252330988719924E-10 |
2.897752977789757E-12 |
2.109269334520281E-10 |
-2.426215904828224E-12 |
node |
8.505755589448609E-15 |
-2.029319466312058E-14 |
2.897752977789757E-12 |
1.146193009237998E-9 |
-1.140146723436192E-9 |
3.006971969152032E-11 |
peri |
1.293500141286568E-13 |
-3.141898669530738E-13 |
2.109269334520281E-10 |
-1.140146723436192E-9 |
1.199194633532702E-9 |
-3.057253311649264E-11 |
i |
-2.784732668035927E-15 |
6.708026308824114E-15 |
-2.426215904828224E-12 |
3.006971969152032E-11 |
-3.057253311649264E-11 |
2.176686609034175E-11 |
|
Physical Parameter Table
Parameter |
Symbol |
Value |
Units |
Sigma |
Reference |
Notes |
absolute magnitude |
H |
15.47 |
|
n/a |
E2021B10 |
|
|
48931 (1998 PM1) Discovered 1998-Aug-10 by Broughton, J. at Reedy Creek |
Reference: 20021120/Numbers.arc | Last Updated: 2004-04-19 |
|
[ show close-approach data ]
|